Flag for Brazil Weather past 2 weeks in Brasilia, Distrito Federal, Brazil

Now
81 °F

Partly sunny.


Feels Like: 79 °F
Forecast: 59 / 81 °F
Wind: 14 mph from Northeast

Location: Brasilia Aeroporto

Current Time: Aug 20, 2014 at 2:07:28 PM

Latest Report: Aug 20, 2014 at 1:00 PM


Visibility: N/A

Pressure: 30.18 "Hg

Humidity: 28%

Dew point: 45 °F

Location of BrasiliaLocation

Historic Weather in Brasilia — Graph

°F

Brasilia temperature yesterday

Maximum temperature yesterday: 84 °F (at 3:00 PM)
Minimum temperature yesterday: 57 °F (at 4:00 AM)
Average temperature yesterday: 72 °F

Past Weeks' High & Low Weather Summary

 TemperatureHumidityPressure
High86 °F (Aug 5, 3:00 PM)77% (Aug 11, 4:00 AM)30.36 "Hg (Aug 11, 4:00 AM)
Low50 °F (Aug 9, 7:00 AM)12% (Aug 8, 4:00 PM)30.09 "Hg (Aug 10, 4:00 PM)
Average70 °F43%30.20 "Hg
* Reported Aug 5 1:00 PM — Aug 20 1:00 PM, Brasilia, Weather by CustomWeather, © 2014

Note: Actual official high and low records may vary slightly from our data, if they occured in-between our weather recording intervals... More about our weather records

Advertising

Brasilia weather history for previous 24 hours

 ConditionsComfort  
Time TempWeatherWind HumidityBarometerVisibility
1:00 PM
Aug 20
81 °FPartly sunny.14 mph28%30.18 "HgN/A
12:00 PM82 °FPartly sunny.12 mph30%30.21 "HgN/A
11:00 AM79 °FScattered clouds.14 mph37%30.24 "HgN/A
10:00 AM75 °FSunny.13 mph44%30.24 "Hg10 mi
9:00 AM72 °FSunny.13 mph50%30.24 "Hg10 mi
8:00 AM68 °FSunny.3 mph56%30.21 "Hg10 mi
7:00 AM61 °FSunny.2 mph68%30.18 "Hg10 mi
6:00 AM57 °FClear.6 mph72%30.18 "Hg10 mi
5:00 AM61 °FClear.No wind63%30.15 "Hg10 mi
4:00 AM59 °FClear.No wind68%30.12 "Hg10 mi
3:00 AM61 °FClear.No wind63%30.12 "Hg10 mi
2:00 AM61 °FClear.No wind63%30.15 "Hg10 mi
1:00 AM63 °FClear.No wind59%30.18 "Hg10 mi
12:00 AM64 °FClear.No wind60%30.18 "Hg10 mi
11:00 PM
Aug 19
68 °FClear.No wind53%30.18 "Hg10 mi
10:00 PM70 °FClear.3 mph50%30.18 "Hg10 mi
9:00 PM75 °FClear.6 mph39%30.18 "Hg10 mi
8:00 PM77 °FClear.3 mph39%30.18 "Hg10 mi
7:00 PM77 °FPassing clouds.5 mph39%30.15 "HgN/A
6:00 PM81 °FPassing clouds.8 mph30%30.12 "HgN/A
5:00 PM84 °FScattered clouds.10 mph27%30.12 "HgN/A
4:00 PM84 °FPartly sunny.6 mph27%30.12 "HgN/A
3:00 PM84 °FPartly sunny.7 mph22%30.12 "HgN/A
2:00 PM82 °FPartly sunny.9 mph26%30.15 "HgN/A
Weather by CustomWeather, © 2014

See weather overviewHow to use our weather pages